DHK1278 LEIB-LIPY

Flight info

Callsign DHK1278
Flight time 1h 27m
Altitude 34000
Route MHN N851 ISTER UN851 LUNOR DCT NESUL Z240 PELOS DCT GILIO
Aircraft B77L/H-SDE1E2E3FGHIJ2J3J4J5M1RWXY/LB1D1

Departure

Time 2026-04-30 19:38
Airport Ibiza Airport (LEIB)

Arrival

Time 2026-04-30 21:05
Airport Marche Airport (LIPY)
Time Latitude Longitude Altitude Speed Heading
2026-04-30 18:28 38.87314 1.36708 13 ft 0 kts 83°
2026-04-30 19:27 38.87320 1.36737 13 ft 8 kts 65°
2026-04-30 19:28 38.87339 1.36803 13 ft 8 kts 89°
2026-04-30 19:28 38.87265 1.36806 12 ft 9 kts 242°
2026-04-30 19:29 38.87189 1.36624 12 ft 19 kts 242°
2026-04-30 19:29 38.87125 1.36469 12 ft 20 kts 242°
2026-04-30 19:30 38.86933 1.36006 12 ft 20 kts 241°
2026-04-30 19:30 38.86832 1.35775 12 ft 7 kts 225°
2026-04-30 19:31 38.86795 1.35774 12 ft 0 kts 161°
2026-04-30 19:31 38.86789 1.35776 12 ft 0 kts 166°
2026-04-30 19:36 38.86787 1.35776 12 ft 3 kts 166°
2026-04-30 19:36 38.86726 1.35941 10 ft 9 kts 84°
2026-04-30 19:37 38.86751 1.36019 9 ft 9 kts 64°
2026-04-30 19:37 38.86752 1.36022 9 ft 0 kts 64°
2026-04-30 19:37 38.86866 1.36301 9 ft 85 kts 62°
2026-04-30 19:37 38.87292 1.37361 12 ft 180 kts 65°
2026-04-30 19:38 38.87877 1.38960 661 ft 197 kts 66°
2026-04-30 19:38 38.88347 1.40599 1782 ft 200 kts 76°
2026-04-30 19:38 38.88657 1.42392 2746 ft 209 kts 76°
2026-04-30 19:38 38.88984 1.44211 3513 ft 216 kts 75°
2026-04-30 19:39 38.89338 1.46143 4222 ft 222 kts 75°
2026-04-30 19:39 38.89693 1.48058 5002 ft 225 kts 74°
2026-04-30 19:39 38.90063 1.50030 5695 ft 230 kts 74°
2026-04-30 19:39 38.90444 1.52047 6369 ft 236 kts 74°
2026-04-30 19:40 38.90814 1.54132 7013 ft 241 kts 82°
2026-04-30 19:40 38.90779 1.56363 7358 ft 263 kts 96°
2026-04-30 19:40 38.90509 1.58808 7688 ft 286 kts 98°
2026-04-30 19:40 38.90221 1.61378 8364 ft 296 kts 97°
2026-04-30 19:41 38.89948 1.64028 9140 ft 303 kts 97°
2026-04-30 19:41 38.89593 1.66674 9910 ft 306 kts 109°
2026-04-30 19:41 38.88741 1.69201 10540 ft 314 kts 118°
2026-04-30 19:41 38.87766 1.71749 11202 ft 322 kts 118°
2026-04-30 19:42 38.86781 1.74356 11984 ft 327 kts 117°
2026-04-30 19:42 38.85791 1.77017 12665 ft 338 kts 117°
2026-04-30 19:42 38.84748 1.79847 12865 ft 364 kts 117°
2026-04-30 19:42 38.83636 1.82892 13075 ft 389 kts 117°
2026-04-30 19:43 38.82471 1.86097 13647 ft 402 kts 117°
2026-04-30 19:43 38.81341 1.89398 14270 ft 408 kts 110°
2026-04-30 19:43 38.80934 1.92985 14862 ft 419 kts 88°
2026-04-30 19:44 38.82610 2.00108 16468 ft 423 kts 66°
2026-04-30 19:44 38.83811 2.03583 17187 ft 429 kts 66°
2026-04-30 19:44 38.85031 2.07087 17963 ft 432 kts 66°
2026-04-30 19:44 38.86254 2.10627 18711 ft 435 kts 66°
2026-04-30 19:45 38.87477 2.14204 19363 ft 440 kts 66°
2026-04-30 19:45 38.88699 2.17817 19989 ft 444 kts 66°
2026-04-30 19:45 38.89911 2.21428 20599 ft 449 kts 66°
2026-04-30 19:45 38.91148 2.25131 21224 ft 453 kts 67°
2026-04-30 19:46 38.92395 2.28876 21853 ft 458 kts 67°
2026-04-30 19:46 38.93648 2.32649 22459 ft 462 kts 67°
2026-04-30 19:46 38.94914 2.36464 23063 ft 467 kts 67°
2026-04-30 19:46 38.96193 2.40324 23652 ft 471 kts 67°
2026-04-30 19:47 38.97482 2.44217 24147 ft 476 kts 67°
2026-04-30 19:47 38.98340 2.46811 24487 ft 478 kts 67°
2026-04-30 19:47 39.00071 2.52053 25132 ft 483 kts 66°
2026-04-30 19:47 39.01387 2.56042 25618 ft 487 kts 66°
2026-04-30 19:48 39.02715 2.60073 26089 ft 492 kts 66°
2026-04-30 19:48 39.04053 2.64142 26560 ft 496 kts 66°
2026-04-30 19:48 39.05393 2.68225 27022 ft 500 kts 66°
2026-04-30 19:48 39.06754 2.72376 27481 ft 504 kts 66°
2026-04-30 19:49 39.08119 2.76543 27927 ft 507 kts 66°
2026-04-30 19:49 39.10876 2.84985 28791 ft 515 kts 66°
2026-04-30 19:49 39.12249 2.89197 29190 ft 519 kts 66°
2026-04-30 19:50 39.13647 2.93489 29600 ft 521 kts 66°
2026-04-30 19:50 39.15240 2.97679 30114 ft 520 kts 56°
2026-04-30 19:50 39.17303 3.01494 30601 ft 518 kts 51°
2026-04-30 19:50 39.19505 3.05151 31094 ft 516 kts 50°
2026-04-30 19:51 39.21744 3.08764 31552 ft 516 kts 49°
2026-04-30 19:51 39.23971 3.12381 31996 ft 516 kts 50°
2026-04-30 19:51 39.26171 3.16026 32432 ft 516 kts 51°
2026-04-30 19:51 39.28322 3.19663 32878 ft 515 kts 51°
2026-04-30 19:52 39.30471 3.23352 33328 ft 514 kts 51°
2026-04-30 19:52 39.32608 3.27054 33773 ft 513 kts 52°
2026-04-30 19:52 39.34742 3.30764 34113 ft 515 kts 52°
2026-04-30 19:52 39.36882 3.34488 34065 ft 518 kts 52°
2026-04-30 19:53 39.41158 3.41932 34066 ft 512 kts 52°
2026-04-30 19:53 39.45390 3.49303 34070 ft 510 kts 52°
2026-04-30 19:54 39.49584 3.56620 34075 ft 509 kts 52°
2026-04-30 19:54 39.53800 3.63990 34075 ft 509 kts 52°
2026-04-30 19:55 39.58011 3.71372 34079 ft 510 kts 52°
2026-04-30 19:55 39.62227 3.78780 34084 ft 511 kts 52°
2026-04-30 19:56 39.66414 3.86154 34091 ft 511 kts 52°
2026-04-30 19:56 39.70629 3.93596 34096 ft 512 kts 52°
2026-04-30 19:57 39.74843 4.01053 34100 ft 512 kts 52°
2026-04-30 19:57 39.79046 4.08509 34103 ft 511 kts 52°
2026-04-30 19:58 39.83246 4.15977 34103 ft 511 kts 52°
2026-04-30 19:58 39.87371 4.23429 34105 ft 511 kts 55°
2026-04-30 19:59 39.90996 4.31396 34112 ft 512 kts 59°
2026-04-30 20:00 39.96207 4.43526 34095 ft 511 kts 59°
2026-04-30 20:00 39.99766 4.51539 34098 ft 511 kts 58°
2026-04-30 20:01 40.05091 4.63508 34093 ft 511 kts 58°
2026-04-30 20:01 40.08646 4.71542 34088 ft 511 kts 58°
2026-04-30 20:02 40.13986 4.83616 34096 ft 512 kts 58°
2026-04-30 20:03 40.19292 4.95666 34094 ft 513 kts 58°
2026-04-30 20:03 40.22842 5.03756 34090 ft 513 kts 58°
2026-04-30 20:04 40.26390 5.11862 34095 ft 513 kts 58°
2026-04-30 20:05 40.31693 5.24020 34097 ft 513 kts 58°
2026-04-30 20:05 40.36961 5.36143 34094 ft 512 kts 58°
2026-04-30 20:06 40.40484 5.44275 34094 ft 512 kts 58°
2026-04-30 20:06 40.43997 5.52400 34095 ft 512 kts 58°
2026-04-30 20:07 40.47488 5.60494 34096 ft 512 kts 58°
2026-04-30 20:08 40.52738 5.72713 34096 ft 512 kts 58°
2026-04-30 20:08 40.55645 5.79498 34096 ft 513 kts 58°
2026-04-30 20:09 40.59143 5.87684 34098 ft 513 kts 58°
2026-04-30 20:09 40.64942 6.01306 34099 ft 514 kts 58°
2026-04-30 20:10 40.69584 6.12251 34103 ft 514 kts 58°
2026-04-30 20:11 40.74805 6.24612 34106 ft 515 kts 57°
2026-04-30 20:11 40.78849 6.34221 34108 ft 516 kts 57°
2026-04-30 20:12 40.83476 6.45254 34111 ft 516 kts 57°
2026-04-30 20:13 40.86945 6.53550 34099 ft 516 kts 57°
2026-04-30 20:13 40.90411 6.61865 34118 ft 517 kts 57°
2026-04-30 20:14 40.93874 6.70194 34112 ft 517 kts 57°
2026-04-30 20:14 40.97308 6.78477 34121 ft 517 kts 57°
2026-04-30 20:15 41.00760 6.86827 34124 ft 517 kts 57°
2026-04-30 20:15 41.04208 6.95188 34116 ft 517 kts 57°
2026-04-30 20:16 41.07033 7.03998 34119 ft 524 kts 70°
2026-04-30 20:16 41.08489 7.13420 34115 ft 528 kts 81°
2026-04-30 20:17 41.09219 7.23113 34125 ft 528 kts 82°
2026-04-30 20:17 41.09932 7.32800 34120 ft 528 kts 82°
2026-04-30 20:18 41.10697 7.42489 34127 ft 528 kts 82°
2026-04-30 20:18 41.11478 7.52189 34125 ft 529 kts 81°
2026-04-30 20:19 41.12243 7.61830 34124 ft 529 kts 81°
2026-04-30 20:19 41.13000 7.71529 34127 ft 529 kts 81°
2026-04-30 20:20 41.13751 7.81239 34127 ft 530 kts 81°
2026-04-30 20:20 41.14466 7.90982 34130 ft 531 kts 82°
2026-04-30 20:21 41.15134 8.00674 34129 ft 531 kts 82°
2026-04-30 20:21 41.15906 8.10402 34132 ft 529 kts 76°
2026-04-30 20:22 41.18022 8.19656 34148 ft 521 kts 62°
2026-04-30 20:22 41.21438 8.28017 34139 ft 514 kts 52°
2026-04-30 20:23 41.25201 8.36094 34143 ft 514 kts 52°
2026-04-30 20:23 41.28918 8.44147 34135 ft 516 kts 52°
2026-04-30 20:24 41.32628 8.52326 34139 ft 516 kts 53°
2026-04-30 20:24 41.36315 8.60524 34145 ft 516 kts 53°
2026-04-30 20:25 41.41829 8.72829 34153 ft 515 kts 53°
2026-04-30 20:26 41.47303 8.85082 34162 ft 514 kts 53°
2026-04-30 20:26 41.52774 8.97375 34170 ft 513 kts 54°
2026-04-30 20:27 41.60011 9.13712 34151 ft 511 kts 54°
2026-04-30 20:28 41.67197 9.30026 34164 ft 508 kts 54°
2026-04-30 20:30 41.76079 9.50309 34189 ft 506 kts 54°
2026-04-30 20:31 41.86705 9.74760 34188 ft 508 kts 54°
2026-04-30 20:32 41.95561 9.95293 34184 ft 508 kts 54°
2026-04-30 20:33 42.00824 10.07566 34187 ft 507 kts 55°
2026-04-30 20:34 42.06077 10.19866 34186 ft 504 kts 55°
2026-04-30 20:35 42.11284 10.32107 34176 ft 501 kts 55°
2026-04-30 20:35 42.16434 10.44263 34182 ft 499 kts 55°
2026-04-30 20:36 42.19857 10.52371 34187 ft 498 kts 55°
2026-04-30 20:37 42.24987 10.64563 34195 ft 498 kts 55°
2026-04-30 20:37 42.28396 10.72693 34195 ft 497 kts 55°
2026-04-30 20:38 42.31772 10.80769 34193 ft 497 kts 55°
2026-04-30 20:38 42.35165 10.88906 34191 ft 495 kts 55°
2026-04-30 20:39 42.38679 10.96624 33925 ft 470 kts 49°
2026-04-30 20:39 42.40542 11.00235 33508 ft 464 kts 49°
2026-04-30 20:39 42.42394 11.03779 32979 ft 457 kts 48°
2026-04-30 20:40 42.45940 11.10586 31030 ft 439 kts 47°
2026-04-30 20:40 42.47698 11.13974 30218 ft 437 kts 47°
2026-04-30 20:40 42.49428 11.17325 29796 ft 432 kts 47°
2026-04-30 20:41 42.52833 11.23949 28919 ft 425 kts 48°
2026-04-30 20:41 42.54514 11.27232 28474 ft 421 kts 48°
2026-04-30 20:41 42.56169 11.30469 28047 ft 417 kts 48°
2026-04-30 20:41 42.57818 11.33699 27623 ft 413 kts 48°
2026-04-30 20:42 42.59423 11.36845 27213 ft 410 kts 49°
2026-04-30 20:42 42.61042 11.40022 26803 ft 407 kts 49°
2026-04-30 20:42 42.64228 11.46284 25998 ft 400 kts 49°
2026-04-30 20:43 42.65796 11.49369 25595 ft 397 kts 49°
2026-04-30 20:43 42.67354 11.52438 25191 ft 394 kts 49°
2026-04-30 20:43 42.68910 11.55506 24797 ft 391 kts 50°
2026-04-30 20:44 42.71964 11.61537 24046 ft 385 kts 50°
2026-04-30 20:44 42.73459 11.64495 23622 ft 383 kts 50°
2026-04-30 20:44 42.76444 11.70410 22773 ft 376 kts 50°
2026-04-30 20:45 42.79372 11.76225 22019 ft 369 kts 50°
2026-04-30 20:45 42.80817 11.79098 21643 ft 365 kts 50°
2026-04-30 20:45 42.82243 11.81938 21278 ft 362 kts 50°
2026-04-30 20:46 42.86462 11.90347 20182 ft 355 kts 50°
2026-04-30 20:46 42.87832 11.93083 19802 ft 353 kts 50°
2026-04-30 20:47 42.90581 11.98580 19091 ft 349 kts 51°
2026-04-30 20:47 42.91945 12.01312 18713 ft 348 kts 51°
2026-04-30 20:48 42.94651 12.06738 17919 ft 344 kts 51°
2026-04-30 20:48 42.95994 12.09434 17536 ft 342 kts 51°
2026-04-30 20:48 42.97328 12.12117 17151 ft 340 kts 52°
2026-04-30 20:48 42.98653 12.14783 16780 ft 338 kts 52°
2026-04-30 20:49 42.99951 12.17397 16429 ft 336 kts 52°
2026-04-30 20:49 43.01261 12.20037 16065 ft 335 kts 52°
2026-04-30 20:49 43.02550 12.22639 15715 ft 333 kts 52°
2026-04-30 20:50 43.05136 12.27862 15001 ft 330 kts 53°
2026-04-30 20:50 43.06418 12.30455 14645 ft 329 kts 53°
2026-04-30 20:50 43.07692 12.33036 14286 ft 328 kts 53°
2026-04-30 20:50 43.08970 12.35624 13921 ft 327 kts 53°
2026-04-30 20:51 43.10224 12.38168 13537 ft 326 kts 53°
2026-04-30 20:51 43.12748 12.43294 12800 ft 323 kts 53°
2026-04-30 20:51 43.13997 12.45836 12448 ft 322 kts 53°
2026-04-30 20:52 43.15245 12.48374 12092 ft 320 kts 54°
2026-04-30 20:52 43.16483 12.50896 11742 ft 318 kts 54°
2026-04-30 20:52 43.18940 12.55910 11050 ft 316 kts 54°
2026-04-30 20:53 43.20162 12.58404 10757 ft 312 kts 54°
2026-04-30 20:53 43.21337 12.60808 10630 ft 304 kts 54°
2026-04-30 20:53 43.22498 12.63185 10483 ft 296 kts 54°
2026-04-30 20:54 43.24725 12.67748 10239 ft 280 kts 54°
2026-04-30 20:54 43.25808 12.69968 9919 ft 279 kts 54°
2026-04-30 20:54 43.26885 12.72175 9620 ft 277 kts 54°
2026-04-30 20:55 43.29013 12.76544 9014 ft 273 kts 54°
2026-04-30 20:55 43.30043 12.78663 8700 ft 259 kts 54°
2026-04-30 20:55 43.31000 12.80632 8427 ft 242 kts 54°
2026-04-30 20:56 43.32891 12.84526 7949 ft 258 kts 55°
2026-04-30 20:56 43.33877 12.86554 7668 ft 263 kts 55°
2026-04-30 20:56 43.35887 12.90703 7075 ft 256 kts 56°
2026-04-30 20:57 43.36863 12.92723 6793 ft 251 kts 56°
2026-04-30 20:57 43.37819 12.94701 6497 ft 246 kts 56°
2026-04-30 20:57 43.38741 12.96610 6211 ft 240 kts 56°
2026-04-30 20:58 43.40537 13.00326 5459 ft 225 kts 57°
2026-04-30 20:58 43.41422 13.02160 5194 ft 236 kts 58°
2026-04-30 20:58 43.42345 13.04076 4904 ft 243 kts 58°
2026-04-30 20:58 43.43279 13.06016 4591 ft 241 kts 58°
2026-04-30 20:59 43.45090 13.09781 4055 ft 231 kts 58°
2026-04-30 20:59 43.45969 13.11609 3785 ft 229 kts 57°
2026-04-30 21:00 43.47743 13.15300 3488 ft 229 kts 57°
2026-04-30 21:00 43.49418 13.18791 3132 ft 210 kts 57°
2026-04-30 21:01 43.50995 13.21766 2747 ft 182 kts 46°
2026-04-30 21:01 43.51887 13.22970 2803 ft 173 kts 46°
2026-04-30 21:01 43.53537 13.25240 2066 ft 157 kts 47°
2026-04-30 21:02 43.54305 13.26250 1601 ft 147 kts 43°
2026-04-30 21:02 43.55057 13.27141 1172 ft 144 kts 40°
2026-04-30 21:02 43.55776 13.28017 1096 ft 136 kts 45°
2026-04-30 21:02 43.56471 13.29015 1408 ft 146 kts 47°
2026-04-30 21:03 43.57178 13.30013 1275 ft 149 kts 46°
2026-04-30 21:03 43.57915 13.31035 1009 ft 153 kts 46°
2026-04-30 21:03 43.58680 13.32136 682 ft 163 kts 47°
2026-04-30 21:03 43.59446 13.33218 412 ft 153 kts 45°
2026-04-30 21:04 43.60198 13.34240 250 ft 149 kts 46°
2026-04-30 21:04 43.60912 13.35232 100 ft 146 kts 46°
2026-04-30 21:04 43.61996 13.36720 52 ft 59 kts 46°
2026-04-30 21:05 43.62175 13.36978 54 ft 30 kts 46°
2026-04-30 21:05 43.62324 13.37179 55 ft 30 kts 43°
2026-04-30 21:05 43.62414 13.37304 54 ft 16 kts 47°
2026-04-30 21:05 43.62493 13.37413 53 ft 16 kts 44°
2026-04-30 21:06 43.62557 13.37486 54 ft 6 kts 46°
2026-04-30 21:06 43.62553 13.37536 52 ft 6 kts 137°
2026-04-30 21:06 43.62529 13.37528 52 ft 3 kts 223°
2026-04-30 21:06 43.62520 13.37491 52 ft 8 kts 255°
2026-04-30 21:07 43.62495 13.37410 53 ft 9 kts 238°
2026-04-30 21:07 43.62451 13.37345 53 ft 9 kts 225°
2026-04-30 21:07 43.62405 13.37281 53 ft 9 kts 225°
2026-04-30 21:07 43.62359 13.37218 58 ft 9 kts 224°
2026-04-30 21:08 43.62296 13.37132 58 ft 20 kts 225°
2026-04-30 21:08 43.62192 13.36991 53 ft 21 kts 225°
2026-04-30 21:08 43.62087 13.36847 52 ft 21 kts 225°
2026-04-30 21:08 43.61986 13.36704 52 ft 21 kts 226°
2026-04-30 21:09 43.61879 13.36564 54 ft 21 kts 222°
2026-04-30 21:09 43.61771 13.36427 55 ft 21 kts 223°
2026-04-30 21:09 43.61666 13.36284 53 ft 21 kts 225°
2026-04-30 21:09 43.61563 13.36139 53 ft 21 kts 226°
2026-04-30 21:10 43.61460 13.35993 53 ft 21 kts 226°
2026-04-30 21:10 43.61358 13.35849 55 ft 21 kts 224°
2026-04-30 21:10 43.61251 13.35708 52 ft 21 kts 224°
2026-04-30 21:10 43.61139 13.35579 55 ft 21 kts 208°
2026-04-30 21:11 43.61010 13.35559 54 ft 9 kts 180°
2026-04-30 21:11 43.60965 13.35600 56 ft 10 kts 84°
2026-04-30 21:11 43.60999 13.35681 56 ft 10 kts 50°
2026-04-30 21:11 43.61046 13.35751 52 ft 10 kts 42°
2026-04-30 21:12 43.61097 13.35817 53 ft 10 kts 44°
2026-04-30 21:12 43.61127 13.35857 54 ft 3 kts 44°
2026-04-30 21:12 43.61137 13.35886 54 ft 4 kts 95°
2026-04-30 21:12 43.61131 13.35896 52 ft 0 kts 126°
2026-04-30 21:13 43.61092 13.35894 52 ft 0 kts 134°